Location: Amherst
(42.5000°N, 72.5000°W)
Time: 02:21:40
(UTC-04:00)

ISS - Pass Details

Date: 22 May 2018
Orbit: 402 x 407 km, 51.6° (Epoch: 26 May)

Event Time Altitude Azimuth Distance (km) Brightness Sun altitude
Rises 01:40:44 0° 305° (NW) 2,319 0.3 -25.9°
Reaches altitude 10° 01:43:12 10° 323° (NW) 1,458 -0.6 -25.8°
Maximum altitude 01:45:42 20° 13° (NNE) 1,008 -1.0 -25.7°
Drops below altitude 10° 01:48:11 10° 63° (ENE) 1,456 -0.5 -25.5°
Sets 01:50:38 0° 81° (E) 2,314 0.3 -25.4°
